Etusivu
METAR-TAF:

METAR-TAF

Lentoasemat :

Copper Harbor, Michigan, Yhdysvallat

Leveyspiiri: 47-28-01N, Pituuspiiri: 087-52-30W, korkeus merenpinnasta: 190 m

Tämänhetkinen sää

Tämä raportti tehtiin 1 tunti ja 6 minuuttia sitten, kello 04.51 UTC
Tuuli 3 kn eri suunnista
Lämpötila 1°C
Kosteus 86%
Ilmanpaine 1006 hPa

METAR: KP59 190451Z AUTO VRB03KT 01/M01 A2971 RMK AO1 SLP069 T00111011 400390006

Aika: 00:57 (05:57 UTC)


TAF: puuttuu

Säähavainnot ja -ennusteet yli 4000 lentoasemalta (METAR- ja TAF-raportit).

Käytössä olevat sääasemat on merkitty karttaan keltaisilla ja punaisilla pisteillä.

Aseta hiiri pisteen päälle nähdäksesi sääaseman nimen.

Klikkaa sitten nähdäksesi säähavainnot ja -ennusteet.

Kartan vaihtaminen: klikkaa mustalla rastilla varustettuja vihreitä pisteitä, niin voit zoomata sisään; viivalla varustettua vihreää pistettä, niin voit zoomata ulos tai vihreitä nuolia, niin pääset viereisille kartoille.


METAR-TAF: